This is the latest recevied weather packets stored in our database for station/object ESUT. If no packets are shown the sender has not sent any weather packets the latest 10 day(s).
| Time | Temp. | Humidity | Pressure | Rain* | Wind** | Luminosity | Snow |
|---|---|---|---|---|---|---|---|
| 1778160787 | 3.89° C | 55% | 1015 hPa | - | - | - | - |
| 1778158988 | 3.89° C | 60% | 1015 hPa | - | - | - | - |
| 1778157188 | 3.89° C | 60% | 1014 hPa | - | - | - | - |
| 1778155387 | 3.89° C | 51% | 1014 hPa | - | - | - | - |
| 1778153588 | 5° C | 52% | 1014 hPa | - | - | - | - |
| 1778151787 | 3.89° C | 48% | 1014 hPa | - | - | - | - |
| 1778149987 | 3.89° C | 51% | 1014 hPa | - | - | - | - |
| 1778148188 | 3.89° C | 51% | 1013 hPa | - | - | - | - |
| 1778146388 | 2.78° C | 51% | 1013 hPa | - | - | - | - |
| 1778144588 | 2.78° C | 51% | 1013 hPa | - | - | - | - |
| 1778142787 | 2.78° C | 51% | 1013 hPa | - | - | - | - |
| 1778140988 | 2.78° C | 59% | 1013 hPa | - | - | - | - |
| 1778139188 | 1.67° C | 59% | 1012 hPa | - | - | - | - |
| 1778137387 | 1.67° C | 69% | 1012 hPa | - | - | - | - |
| 1778135587 | 1.67° C | 69% | 1012 hPa | - | - | - | - |
| 1778131987 | 0.56° C | 74% | 1012 hPa | - | - | - | - |
| 1778130187 | 0° C | 92% | 1012 hPa | - | - | - | - |
| 1778128388 | -1.11° C | 10% | - | - | - | - | - |
| 1778126588 | -1.11° C | 10% | - | - | - | - | - |
| 1778124787 | -1.11° C | 92% | 1011 hPa | - | - | - | - |
| 1778122986 | -1.11° C | 92% | 1011 hPa | - | - | - | - |
| 1778121187 | -1.11° C | 92% | 1011 hPa | - | - | - | - |
| 1778119387 | -2.22° C | 10% | - | - | - | - | - |
| 1778117587 | -2.22° C | 10% | - | - | - | - | - |
| 1778115787 | -2.22° C | 10% | - | - | - | - | - |
* Rain since midnight (hover to see other rain measurements)
** Current wind speed in m/s (hover to see current wind gust speed)